CAPE
388 304 317 244 310 414 405 437 361 551 394 142 0 1 248 96 39 447 1109 1123 866 422
431 28 220 187 220 373 379 432 465 536 694 617 371 185 258 343 485 659 780 1238 1131 902
19 83 359 262 227 234 355 278 475 508 639 765 827 781 692 731 541 661 639 845 1022 1103
20 0 494 793 542 557 319 364 415 486 507 557 763 826 853 943 879 679 825 724 1008 1250
547 560 1232 1052 1073 713 574 409 434 512 546 549 516 661 774 894 1067 809 843 856 812 967
27 1 26 284 1068 1238 767 680 467 454 484 542 599 476 587 746 897 940 1006 1010 827 912
478 311 787 498 439 1236 1559 1026 934 599 618 629 574 670 557 631 734 813 930 1064 937 963
650 859 795 655 876 1066 1547 1848 1665 896 645 769 671 639 536 724 667 755 754 850 936 1001
170 402 275 108 123 344 505 975 1111 940 837 706 849 0 0 33 538 664 785 582 627 841
0 28 103 31 0 54 157 274 384 70 764 1 2 0 0 0 0 178 635 657 590 491
0 0 0 36 0 0 0 108 426 809 22 5 13 1 0 0 0 0 2 458 678 565
0 0 0 0 0 0 0 0 122 690 92 45 3 0 0 0 0 1 0 3 544 604
0 0 0 0 0 0 0 0 22 299 401 148 35 0 0 0 0 0 0 1 129 277
0 0 0 0 0 0 0 0 0 4 295 302 69 2 0 0 2 0 0 0 5 18
CIN
-277 -300 -276 -263 -242 -189 -177 -172 -200 -154 -180 -246 -0 -14 -218 -275 -326 -171 -95 -103 -127 -176
-200 -364 -237 -283 -265 -195 -204 -184 -197 -174 -134 -150 -175 -221 -191 -154 -149 -133 -122 -89 -103 -115
-424 -553 -245 -184 -235 -275 -229 -232 -191 -184 -143 -127 -115 -119 -115 -95 -137 -111 -124 -95 -89 -90
-686 -0 -302 -114 -134 -187 -254 -260 -204 -176 -164 -151 -125 -116 -91 -77 -76 -95 -87 -104 -79 -66
-271 -232 -39 -65 -112 -142 -169 -250 -250 -225 -168 -132 -135 -119 -101 -72 -51 -75 -72 -78 -81 -72
-342 -130 -423 -237 -84 -100 -167 -166 -231 -227 -221 -188 -148 -141 -132 -93 -70 -65 -65 -64 -78 -67
-296 -304 -158 -226 -229 -81 -45 -101 -112 -195 -223 -182 -176 -134 -118 -95 -80 -71 -57 -57 -74 -68
-153 -94 -107 -156 -119 -95 -15 -2 -10 -114 -174 -114 -144 -155 -154 -99 -78 -63 -72 -61 -61 -69
-176 -118 -133 -224 -257 -191 -135 -49 -42 -60 -37 -53 -3 -0 -0 -157 -35 -74 -57 -79 -85 -78
-0 -140 -134 -214 -0 -240 -181 -147 -114 -39 -52 -0 -0 -0 -0 -0 -0 -22 -0 -39 -62 -77
-0 -0 -0 -126 -0 -0 -0 -138 -60 -42 -244 -213 -233 -45 -0 -0 -0 -0 -0 -7 -2 -45
-0 -0 -0 -0 -0 -0 -0 -0 -113 -32 -148 -194 -51 -0 -0 -0 -0 -0 -0 -19 -22 -12
-0 -0 -0 -0 -0 -0 -0 -0 -144 -97 -52 -153 -235 -0 -0 -0 -0 -0 -0 -0 -137 -90
-0 -0 -0 -0 -0 -0 -0 -0 -0 -35 -60 -98 -193 -103 -0 -0 -0 -0 -0 -0 -203 -204
Wind_Speed
4 4 5 6 5 6 7 6 5 8 7 8 7 7 5 4 5 5 5 6 5 3
3 5 6 6 7 7 8 7 7 8 9 9 8 8 7 6 7 5 5 5 5 4
8 7 8 6 11 11 10 9 7 10 10 10 10 9 8 7 6 6 5 5 6 5
8 5 2 10 15 12 11 11 11 10 10 11 11 10 9 10 8 9 8 7 6 7
6 9 8 10 14 14 13 12 13 13 12 11 11 11 12 12 11 10 10 10 8 9
9 7 9 9 11 10 12 13 12 12 13 13 13 11 12 12 12 11 12 12 11 11
5 6 7 7 8 7 8 10 12 13 14 13 13 12 11 11 11 11 11 11 12 12
5 5 4 4 5 5 6 9 12 13 10 10 10 9 11 11 12 12 12 11 12 13
5 4 5 5 6 5 4 6 4 3 4 6 3 12 14 11 8 11 12 12 12 12
5 5 6 5 6 6 5 4 4 7 8 15 11 10 12 12 8 10 10 11 11 10
5 6 6 5 6 6 4 5 3 2 8 9 9 10 5 7 9 7 10 11 11 10
6 7 6 6 6 6 4 5 3 4 6 8 9 18 21 15 5 11 11 10 10 11
7 7 8 6 7 4 4 5 4 5 6 12 10 18 17 15 10 9 8 10 11 13
8 9 8 9 6 8 8 5 6 6 5 8 10 12 19 21 11 11 8 7 9 11
Wind_Direction
206 202 219 227 221 228 223 215 209 209 207 214 203 214 207 206 230 223 238 229 215 187
290 288 238 232 221 234 234 226 209 204 214 222 218 206 203 218 222 218 225 236 231 235
201 223 259 254 239 226 225 223 216 211 213 220 223 216 207 218 217 222 227 232 231 232
278 317 264 261 258 240 234 213 215 228 216 214 213 216 214 219 210 215 226 224 220 232
264 261 260 239 244 247 238 222 218 211 219 222 217 211 215 219 218 211 220 225 218 230
226 244 249 250 256 233 231 238 220 220 215 214 217 211 215 214 217 210 213 217 218 225
286 279 296 300 286 268 238 237 234 224 225 224 215 209 211 215 215 218 217 216 217 215
279 276 294 291 294 298 290 260 246 236 227 238 232 216 216 209 216 220 223 221 222 221
279 257 260 274 282 294 291 285 230 222 240 216 268 15 22 339 264 225 222 225 225 229
282 274 269 252 266 267 274 272 257 216 175 115 109 45 61 24 354 316 271 248 230 222
285 280 278 268 269 281 271 277 309 173 152 150 137 140 317 270 271 289 292 268 246 228
285 287 282 274 265 262 264 276 217 232 211 221 208 189 189 196 264 267 259 270 248 232
281 275 279 274 285 258 248 261 271 236 187 215 212 200 187 187 201 221 258 244 261 239
269 265 261 265 251 267 260 255 262 257 217 217 209 200 208 202 203 219 215 233 253 249